World > North America > United States > California

Bonnie Bell, California Regional Weather

Lat: 33.95N, Lon: 116.64W
Wx Zone: CAZ061Web Search

Helpful Tip: Type the letters wx in the search engine next time you need to find us.

Feedback


°F Click to change Bonnie Bell hourly weather to Imperial units.Click to change Bonnie Bell hourly weather to Metric units. °C
Bonnie Bell Weather Map
UTC Time: 4/11/2021, 07:09
Your Time:

Bonnie Bell, CA Regional Weather

Expires:202104110800;;369505
ASUS46 KLOX 110703
RWRCA 

SOUTHERN CALIFORNIA WEATHER ROUNDUP
NATIONAL WEATHER SERVICE OXNARD CALIFORNIA
1200 AM PDT SUN APR 11 2021

NOTE: "FAIR" INDICATES FEW OR NO CLOUDS BELOW 12,000 FEET WITH NO 
SIGNIFICANT WEATHER AND/OR OBSTRUCTIONS TO VISIBILITY.

  -  STATIONS PRECEEDED BY AN ASTERISK (*) ARE NOT NWS OR FAA 
     STATIONS AND ARE NOT SUBJECT TO NWS AND FAA QUALITY CONTROL.


CAZ032-033-061-110800-
SOUTHERN DESERTS

  
CITY           SKY/WX    TMP DP  RH WIND       PRES   REMARKS
BLYTHE         PTCLDY    77  25  14 S8        29.69R                  
IMPERIAL       CLEAR     70  37  29 W8        29.67F                  
PALM SPRINGS   PTCLDY    78  41  26 NW9       29.72S                  
THERMAL        PTCLDY    78  43  28 N18       29.67S                  

$$

ELSEWHERE ACROSS THE WESTERN UNITED STATES AND MEXICO

  
CITY           SKY/WX    TMP DP  RH WIND       PRES   REMARKS
DENVER, CO     PTCLDY    48  15  26 SW13      29.71R                  
GRAND CANYON,  CLEAR     28  10  46 NE3       29.99S                  
HONOLULU, HI   PTCLDY    71  56  58 N6        29.99R                  
KAHULUI, MAUI  PTCLDY    67  62  84 E6        29.99R                  
LAKE TAHOE, CA CLEAR     34  25  69 S5        30.07F WCI  30          
LAS VEGAS, NV  CLEAR     71   7   8 SW5       29.76S                  
MAMMOTH LAKES, FAIR      39  18  41 CALM      30.08S                  
MEXICO CITY, M CLEAR     66  34  30 SE7       30.19F                  
PHOENIX, AZ    PTCLDY    78  24  13 W8        29.70F                  
PORTLAND, OR   CLEAR     40  30  67 NW7       30.36R                  
RENO, NV       CLEAR     55  30  38 N8        30.00S                  
SALT LAKE CITY CLEAR     50  29  44 W6        29.86R                  
SAN DIEGO, CA  MOCLDY    61  51  70 S8        29.88F                  
SAN FRANCISCO, CLEAR     51  43  74 W13       29.99F                  
SAN JOSE, CA   PTCLDY    48  41  76 NW3       30.00F                  
SEATTLE, WA    MOCLDY    43  29  57 NE8       30.34R                  
TIJUANA, MEX   CLOUDY    57  50  77 CALM      29.90F                  

$$
  
STATION/POSITION TIME  TEMP    WIND        PRES    VSBY  WAVE
                       AIR SEA DIR/SP/G                  HT/PER
                 (UTC) (F)     (DEG/KT/KT) (MB)    (MI)  (FT/S)
WEST SANTA BARBA 0650          290/ 23/ 29 1012.1S
EAST SANTA BARBA 0640   56 55  120/  2/  4 1010.7S
SANTA MONICA BAY 0640   58 61   60/  8/ 12 1010.5F
SAN CLEMENTE BAS 0640   57 61   40/  8/ 12 1010.9F

SKY/WX - Weather  TMP - Temperature  DP - Dew Point  RH - Relative Humidity
WIND - Wind Direction/Speed PRES - Barometric Pressure VSB - Visibility
WCI - Wind Chill Index E13G22 Wind - East Wind 13 mph/Gusts of 22 mph